Regional Weather Roundup
Issued by NWS

Home | Current Version | Previous Version | Text Only | Print | Product List | Glossary Off
Versions: 1 2 3 4 5 6 7 8 9 10 11 12 13 14 15 16 17 18 19 20 21 22 23 24 25 26 27 28 29 30 31 32 33 34 35 36 37 38 39 40 41 42 43 44 45 46 47 48 49 50

402
ASUS43 KBIS 060610
RWRND

NORTH DAKOTA REGIONAL WEATHER ROUNDUP
NATIONAL WEATHER SERVICE BISMARCK ND
1200 AM CST TUE DEC 06 2016

NOTE: "FAIR" INDICATES FEW OR NO CLOUDS BELOW 12,000 FEET WITH NO
SIGNIFICANT WEATHER AND/OR OBSTRUCTIONS TO VISIBILITY.


NDZ001>003-009>011-017-060700-
NORTHWEST NORTH DAKOTA

CITY           SKY/WX    TMP DP  RH WIND       PRES   REMARKS
WILLISTON      LGT SNOW  10   5  80 NW25G32   29.93R WCI -11
6HR MIN TEMP:  10; 6HR MAX TEMP:  12; 6HR PCP:  0.03;

MINOT          SNOW      19  17  92 NW31      29.66R VSB 1/2 WCI   0
MINOT AFB      SNOW      22  20  91 NW22G29   29.66R VSB 1/4 WCI   7
$$

NDZ018>021-031>035-040>046-060700-
SOUTHWEST NORTH DAKOTA

CITY           SKY/WX    TMP DP  RH WIND       PRES   REMARKS
BISMARCK       LGT SNOW  14  12  92 NW33G46   29.69S VSB 1   WCI  -8
6HR MIN TEMP:  14; 6HR MAX TEMP:  17; 6HR PCP:  1.06;

DICKINSON      MIX PCPN   5   1  83 NW31G41   29.81R VSB 3/4 WCI -19
GARRISON         N/A     14  12  92 NW41G49   29.66R WCI -10
6HR MIN TEMP:  14; 6HR MAX TEMP:  17;

HETTINGER ARPT CLOUDY     6   0  76 NW35      29.84S HAZE    WCI -19
$$

NDZ004>008-012>016-024-026-027-054-060700-
NORTHEAST NORTH DAKOTA

CITY           SKY/WX    TMP DP  RH WIND       PRES   REMARKS
GRAND FORKS    FOG       30  27  88 N17       29.39F VSB 1/2 WCI  18
GRND FRKS AFB  SNOW      29  28  97 NE17      29.40F VSB 1/2 WCI  17
DEVILS LAKE    FLURRIES  27  25  92 N24G30    29.47F WCI  12
$$

NDZ022-023-025-028>030-036>039-047>053-060700-
SOUTHEAST NORTH DAKOTA

CITY           SKY/WX    TMP DP  RH WIND       PRES   REMARKS
FARGO          CLOUDY    28  25  88 SW25G32   29.41R WCI  13
6HR MIN TEMP:  28; 6HR MAX TEMP:  35; 6HR PCP:  0.01;

JAMESTOWN      LGT SNOW  20  18  92 W18G29    29.48F FOG     WCI   5
$$





USA.gov is the U.S. government's official web portal to all federal, state and local government web resources and services.